EN

Hourly Weather Parowa

Today, 2 March, Tuesday

Time Temperature Precipitation Wind Pressure Humidity
00:00 0°C° 0 mm 5 mps 763 mmHg 92%
01:00 0°C° 0 mm 5 mps 763 mmHg 92%
02:00 0°C° 0 mm 5 mps 762 mmHg 92%
03:00 0°C° 0 mm 5 mps 762 mmHg 92%
04:00 0°C° 0 mm 5 mps 762 mmHg 92%
05:00 0°C° 0 mm 5 mps 762 mmHg 92%
06:00 0°C° 0 mm 5 mps 762 mmHg 93%
07:00 0°C° 0 mm 5 mps 762 mmHg 93%
08:00 +1°C° 0 mm 5 mps 762 mmHg 89%
09:00 +2°C° 0 mm 5 mps 762 mmHg 85%
10:00 +3°C° 0 mm 5 mps 762 mmHg 81%
11:00 +5°C° 0 mm 5 mps 762 mmHg 78%
12:00 +6°C° 0 mm 5 mps 763 mmHg 75%
13:00 +6°C° 0 mm 5 mps 763 mmHg 72%
14:00 +6°C° 0 mm 5 mps 763 mmHg 74%
15:00 +5°C° 0 mm 5 mps 763 mmHg 75%
16:00 +5°C° 0 mm 5 mps 763 mmHg 76%
17:00 +4°C° 0 mm 4 mps 763 mmHg 81%
18:00 +3°C° 0 mm 4 mps 764 mmHg 86%
19:00 +1°C° 0 mm 3 mps 764 mmHg 91%
20:00 +1°C° 0 mm 3 mps 764 mmHg 90%
21:00 +1°C° 0 mm 2 mps 764 mmHg 89%
22:00 +1°C° 0 mm 2 mps 764 mmHg 88%
23:00 -1°C° 0 mm 2 mps 765 mmHg 86%

Tomorrow, 3 March, Wednesday

Time Temperature Precipitation Wind Pressure Humidity
00:00 +1°C° 0 mm 1 mps 765 mmHg 84%
01:00 +1°C° 0 mm 1 mps 765 mmHg 82%
02:00 +1°C° 0 mm 1 mps 765 mmHg 81%
03:00 +1°C° 0 mm 1 mps 764 mmHg 80%
04:00 +1°C° 0 mm 1 mps 764 mmHg 79%
05:00 +1°C° 0 mm 1 mps 764 mmHg 78%
06:00 +1°C° 0 mm 1 mps 764 mmHg 76%
07:00 +1°C° 0 mm 1 mps 764 mmHg 75%
08:00 +2°C° 0 mm 2 mps 763 mmHg 69%
09:00 +3°C° 0 mm 2 mps 763 mmHg 62%
10:00 +4°C° 0 mm 3 mps 762 mmHg 56%
11:00 +5°C° 0 mm 3 mps 762 mmHg 57%
12:00 +6°C° 0 mm 4 mps 761 mmHg 58%
13:00 +7°C° 0 mm 4 mps 761 mmHg 58%
14:00 +6°C° 0 mm 4 mps 760 mmHg 62%
15:00 +7°C° 0 mm 3 mps 759 mmHg 66%
16:00 +7°C° 0 mm 3 mps 758 mmHg 70%
17:00 +4°C° 0 mm 3 mps 757 mmHg 74%
18:00 +3°C° 0 mm 3 mps 757 mmHg 78%
19:00 +2°C° 0 mm 3 mps 756 mmHg 82%
20:00 +2°C° 0 mm 3 mps 755 mmHg 83%
21:00 +1°C° 0 mm 3 mps 755 mmHg 85%
22:00 +1°C° 0 mm 3 mps 754 mmHg 86%
23:00 +1°C° 0 mm 3 mps 753 mmHg 88%

Day after tomorrow, 4 March, Thursday

Time Temperature Precipitation Wind Pressure Humidity
00:00 +1°C° 0 mm 3 mps 752 mmHg 90%
01:00 +1°C° 0 mm 3 mps 751 mmHg 92%
02:00 0°C° 0 mm 4 mps 751 mmHg 93%
03:00 0°C° 0 mm 4 mps 750 mmHg 94%
04:00 0°C° 0 mm 4 mps 749 mmHg 95%
05:00 0°C° 0 mm 5 mps 749 mmHg 94%
06:00 0°C° 0 mm 5 mps 749 mmHg 93%
07:00 +1°C° 0 mm 5 mps 749 mmHg 91%
08:00 +1°C° 0 mm 5 mps 749 mmHg 89%
09:00 +1°C° 0 mm 5 mps 749 mmHg 87%
10:00 +1°C° 0 mm 5 mps 749 mmHg 85%
11:00 +1°C° 0 mm 5 mps 749 mmHg 85%
12:00 +1°C° 0 mm 4 mps 749 mmHg 84%
13:00 +3°C° 0 mm 4 mps 749 mmHg 83%
14:00 +1°C° 0.2 mm 4 mps 749 mmHg 87%
15:00 0°C° 0.2 mm 4 mps 748 mmHg 91%
16:00 -1°C° 0.2 mm 4 mps 748 mmHg 95%
17:00 -1°C° 0.5 mm 4 mps 749 mmHg 94%
18:00 0°C° 0.5 mm 3 mps 749 mmHg 92%
19:00 -1°C° 0.5 mm 3 mps 749 mmHg 91%
20:00 -1°C° 0.1 mm 3 mps 750 mmHg 89%
21:00 -2°C° 0.1 mm 2 mps 750 mmHg 87%
22:00 -2°C° 0.1 mm 2 mps 750 mmHg 84%
23:00 -3°C° 0 mm 2 mps 750 mmHg 82%

5 March, Friday

Time Temperature Precipitation Wind Pressure Humidity
00:00 -3°C° 0 mm 2 mps 751 mmHg 79%
01:00 -5°C° 0 mm 3 mps 751 mmHg 77%
02:00 -4°C° 0 mm 2 mps 751 mmHg 76%
03:00 -4°C° 0 mm 2 mps 751 mmHg 76%
04:00 -5°C° 0 mm 2 mps 751 mmHg 75%
05:00 -4°C° 0 mm 2 mps 752 mmHg 73%
06:00 -4°C° 0 mm 2 mps 752 mmHg 71%
07:00 -4°C° 0 mm 2 mps 752 mmHg 69%
08:00 -4°C° 0 mm 3 mps 753 mmHg 64%
09:00 -2°C° 0 mm 3 mps 753 mmHg 59%
10:00 -1°C° 0 mm 4 mps 753 mmHg 55%
11:00 -1°C° 0 mm 4 mps 754 mmHg 51%
12:00 -1°C° 0 mm 4 mps 754 mmHg 48%
13:00 0°C° 0 mm 4 mps 754 mmHg 44%
14:00 -1°C° 0 mm 4 mps 754 mmHg 45%
15:00 -1°C° 0 mm 4 mps 754 mmHg 47%
16:00 -1°C° 0 mm 3 mps 755 mmHg 48%
17:00 -1°C° 0 mm 3 mps 755 mmHg 54%
18:00 -2°C° 0 mm 3 mps 756 mmHg 60%
19:00 -3°C° 0 mm 2 mps 756 mmHg 66%
20:00 -3°C° 0 mm 2 mps 757 mmHg 69%
21:00 -3°C° 0 mm 2 mps 757 mmHg 72%
22:00 -4°C° 0 mm 3 mps 757 mmHg 75%
23:00 -4°C° 0 mm 2 mps 758 mmHg 76%

6 March, Saturday

Time Temperature Precipitation Wind Pressure Humidity
00:00 -4°C° 0 mm 2 mps 758 mmHg 76%
01:00 -4°C° 0 mm 2 mps 758 mmHg 77%
02:00 -4°C° 0 mm 2 mps 759 mmHg 74%
03:00 -4°C° 0 mm 2 mps 759 mmHg 72%
04:00 -5°C° 0 mm 3 mps 759 mmHg 70%
05:00 -4°C° 0 mm 2 mps 760 mmHg 70%
06:00 -5°C° 0 mm 2 mps 760 mmHg 70%
07:00 -5°C° 0 mm 2 mps 761 mmHg 70%
08:00 -3°C° 0 mm 2 mps 761 mmHg 64%
09:00 -2°C° 0 mm 2 mps 761 mmHg 58%
10:00 -1°C° 0 mm 3 mps 761 mmHg 52%
11:00 -2°C° 0 mm 4 mps 761 mmHg 51%
12:00 -1°C° 0 mm 4 mps 761 mmHg 50%
13:00 -1°C° 0 mm 5 mps 761 mmHg 48%
14:00 -1°C° 0 mm 5 mps 760 mmHg 50%
15:00 -1°C° 0 mm 5 mps 760 mmHg 51%
16:00 -1°C° 0 mm 5 mps 759 mmHg 53%
17:00 -2°C° 0 mm 5 mps 759 mmHg 56%
18:00 -2°C° 0 mm 5 mps 759 mmHg 59%
19:00 -4°C° 0 mm 5 mps 758 mmHg 61%
20:00 -4°C° 0 mm 5 mps 758 mmHg 65%
21:00 -4°C° 0 mm 6 mps 758 mmHg 68%
22:00 -4°C° 0 mm 7 mps 758 mmHg 71%
23:00 -3°C° 0 mm 7 mps 757 mmHg 74%

7 March, Sunday

Time Temperature Precipitation Wind Pressure Humidity
00:00 -2°C° 0 mm 7 mps 757 mmHg 77%
01:00 -2°C° 0 mm 7 mps 757 mmHg 80%
02:00 -2°C° 0 mm 7 mps 756 mmHg 81%
03:00 -1°C° 0 mm 7 mps 756 mmHg 81%
04:00 -1°C° 0 mm 7 mps 755 mmHg 82%
05:00 -1°C° 0 mm 7 mps 755 mmHg 85%
06:00 -2°C° 0 mm 7 mps 755 mmHg 89%
07:00 -2°C° 0 mm 7 mps 754 mmHg 92%
08:00 -2°C° 0 mm 7 mps 754 mmHg 91%
09:00 -1°C° 0 mm 8 mps 754 mmHg 90%
10:00 -1°C° 0 mm 8 mps 753 mmHg 89%
11:00 -1°C° 0 mm 8 mps 753 mmHg 86%
12:00 -1°C° 0 mm 8 mps 753 mmHg 82%
13:00 -1°C° 0 mm 9 mps 752 mmHg 79%
14:00 -1°C° 0.1 mm 8 mps 752 mmHg 84%
15:00 -1°C° 0.1 mm 8 mps 751 mmHg 88%
16:00 -1°C° 0.1 mm 8 mps 750 mmHg 93%
17:00 -1°C° 0.6 mm 8 mps 750 mmHg 94%
18:00 -1°C° 0.6 mm 8 mps 749 mmHg 95%
19:00 -1°C° 0.6 mm 8 mps 748 mmHg 96%
20:00 0°C° 0.3 mm 8 mps 748 mmHg 95%
21:00 0°C° 0.3 mm 8 mps 748 mmHg 95%
22:00 0°C° 0.3 mm 7 mps 748 mmHg 94%
23:00 0°C° 0.7 mm 7 mps 748 mmHg 95%
Show more

We Need Your Consent

Meteoprog and our Service Providers may store and access personal data such as cookies, device identifiers or other similar technologies on your device and process such data to personalise content and ads, as well as provide social media features and to analyse the traffic.

  • Store and/or access information on your device

    Cookies, device identifiers or other information can be stored or accessed on your device for the purposes indicated above.

  • Personalised ads and content, ad and content measurement, audience insights, and products development

    Ads and content can be personalised based on a profile. More data can be added to better personalise ads and content. Ad and content performance can be measured. Insights about the audience who saw the ads and content can be derived. Such data can be used to develop or improve user’s experience, systems and software.

By clicking ‘I Agree’ you will allow the use of indicated cookies, device identifiers, web beacons or other similar technologies. Your settings can be changed in the browser on your device.

For certain purposes, legitimate interests may be relied on, rather than consent. You can read more about this in our Privacy and Cookie Policy.